Weather Roundup
Issued by NWS

Home | Current Version | Previous Version | Text Only | Print | Product List | Glossary On
Versions: 1 2 3 4 5 6 7 8 9 10 11 12 13 14 15 16 17 18 19 20 21 22 23 24 25 26 27 28 29 30 31 32 33 34 35 36 37 38 39 40 41 42 43 44 45 46 47 48 49 50
000
NZUS93 KARX 232059
HRRWXR

CURRENT HOURLY OBSERVATIONS ACROSS
MUCH OF THE UPPER MISSISSIPPI VALLEY
NATIONAL WEATHER SERVICE LA CROSSE WI
400 PM CDT SAT MAY 23 2015


...SOUTHEAST MINNESOTA...


CITY           SKY/WX    TMP DP  RH WIND       PRES   REMARKS
ROCHESTER      CLOUDY    76  42  29 SW12      30.19F
ROCHESTER/MAYO MOCLDY    75  40  28 S8        30.19F
WINONA         CLOUDY    73  45  35 SE3       30.19F
AUSTIN         PTSUNNY   73  46  38 S6G16     30.17F
ALBERT LEA     CLOUDY    75  41  29 S7        30.17F
DODGE CENTER   PTSUNNY   73  39  29 S8        30.19F
PRESTON        PTSUNNY   74  40  28 S13G18    30.19F
OWATONNA       CLOUDY    73  39  29 S9        30.18F
FARIBAULT      CLOUDY    72  43  35 CALM      30.19F
$$

...ELSEWHERE IN MINNESOTA...


CITY           SKY/WX    TMP DP  RH WIND       PRES   REMARKS
MINNEAPOLIS    CLOUDY    73  41  31 CALM      30.20F
INTNL FALLS    SUNNY     79  35  20 W12       30.10F
DULUTH         MOSUNNY   76  34  21 SW14      30.16F
RED WING       PTSUNNY   75  39  27 SE5       30.18F
REDWOOD FALLS  CLOUDY    67  48  50 E7        30.16F
MANKATO        CLOUDY    73  45  35 SE8       30.16F
WORTHINGTON    CLOUDY    70  45  40 SE14G20   30.14F
FAIRMONT       CLOUDY    72  45  37 S21G29    30.14F
$$

...SOUTHWEST WISCONSIN...


CITY           SKY/WX    TMP DP  RH WIND       PRES   REMARKS
LA CROSSE      CLOUDY    77  44  30 S14       30.19F
PRAIRIE DU CHI SUNNY     79  38  22 SE7G16    30.19F
BOSCOBEL       MOSUNNY   81  43  26 SW10      30.20F
LONE ROCK      NOT AVBL
PLATTEVILLE    MOSUNNY   76  45  32 E6        30.22F
FORT MC COY    PTSUNNY   77  38  24 S9        30.21F
VIROQUA        MOCLDY    76  42  29 SW10G16   30.22F
WIS DELLS      MOSUNNY   78  37  22 SW8       30.21F
$$

...ELSEWHERE IN WISCONSIN...


CITY           SKY/WX    TMP DP  RH WIND       PRES   REMARKS
MILWAUKEE      MOSUNNY   71  42  35 SE16      30.24F
MADISON        MOSUNNY   78  39  24 S9        30.21F
GREEN BAY      PTSUNNY   78  37  22 SW9       30.21F
EAU CLAIRE     NOT AVBL
BLACK RVR FLS  MOCLDY    77  37  23 SW7       30.19F
MEDFORD        PTSUNNY   74  40  29 SW9       30.22F
WAUSAU         PTSUNNY   74  39  28 W15       30.19F
WIS RAPIDS     MOSUNNY   78  33  19 SW9       30.21F
MARSHFIELD     PTSUNNY   75  39  27 SW7       30.20F
RICE LAKE      CLOUDY    68  38  32 N7        30.23F
$$

...NORTHEAST IOWA...


CITY           SKY/WX    TMP DP  RH WIND       PRES   REMARKS
DECORAH        PTSUNNY   75  39  27 S9G15     30.19F
MASON CITY     CLOUDY    73  47  39 S12G23    30.18F
CHARLES CITY   PTSUNNY   77  45  31 S16       30.18F
OELWEIN        CLOUDY    75  46  35 S18       30.21F
$$

...ELSEWHERE IN IOWA...


CITY           SKY/WX    TMP DP  RH WIND       PRES   REMARKS
DES MOINES     CLOUDY    73  52  47 S15G22    30.14F
IOWA CITY      CLOUDY    76  52  43 S12       30.21F
FORT DODGE     CLOUDY    68  45  42 S12G21    30.16F
$$

...NORTHERN ILLINOIS...


CITY           SKY/WX    TMP DP  RH WIND       PRES   REMARKS
CHICAGO-OHARE  MOSUNNY   79  40  24 SW8       30.22F
CHICAGO-MIDWAY PTSUNNY   82  41  23 S8G17     30.22F
MOLINE         MOSUNNY   79  47  32 SE10G16   30.20F
ROCKFORD       PTSUNNY   80  42  25 S7        30.24F
PEORIA         FAIR      80  49  33 S10       30.22F
$$

NOTE: "FAIR" INDICATES FEW OR NO CLOUDS BELOW 12,000 FEET WITH NO
SIGNIFICANT WEATHER AND/OR OBSTRUCTIONS TO VISIBILITY. WIND
SPEEDS ARE IN MILES-PER-HOUR.



USA.gov is the U.S. government's official web portal to all federal, state and local government web resources and services.